www.pogodaiklimat.ru
ПОГОДА в Довер / Чезволд
Время
и дата
16:35 04.02
16:55 04.02
17:15 04.02
17:35 04.02
17:55 04.02
18:15 04.02
18:35 04.02
18:55 04.02
19:15 04.02
19:35 04.02
19:55 04.02
20:15 04.02
20:35 04.02
20:55 04.02
21:15 04.02
21:35 04.02
21:55 04.02
22:15 04.02
22:35 04.02
22:55 04.02
23:15 04.02
23:35 04.02
23:55 04.02
00:15 05.02
00:35 05.02
00:55 05.02
01:15 05.02
01:35 05.02
01:55 05.02
02:15 05.02
02:35 05.02
02:55 05.02
03:15 05.02
03:35 05.02
03:55 05.02
04:15 05.02
04:35 05.02
04:55 05.02
05:15 05.02
05:35 05.02
05:55 05.02
06:15 05.02
06:35 05.02
06:55 05.02
07:15 05.02
07:35 05.02
07:55 05.02
08:15 05.02
Ветер
(напр.,м/с)
Видим. Явления Облачность Т
(С)
Тd
(С)
f
(%)
Тe
(С)
Тes
(С)
Комфортность P
(гПа)
Po
(гПа)
Тmin
(С)
Tmax
(С)
R
(мм)
R24
(мм)
S
(см)
ЮЗ 4
{6}
16 км ясно -2.0 -18.0 28 -7 -6 1031.3
Ю 4 16 км ясно -2.0 -18.0 28 -7 -6 1031.3
Ю 4 16 км ясно -3.0 -18.0 30 -8 -8 1031.0
Ю 2 16 км ясно -3.0 -18.0 30 -6 -6 1031.0
ЮЗ 3
{5}
16 км ясно -3.0 -17.0 33 -7 -7 1031.0
ЮЗ 4 16 км ясно -3.0 -18.0 30 -8 -8 1031.0
ЮЗ 4 16 км ясно -3.0 -17.0 33 -8 -8 1031.0
Ю 3 16 км ясно -3.0 -17.0 33 -7 -7 1031.0
Ю 3 16 км ясно -4.0 -17.0 36 -8 -8 1030.6
Ю 2 16 км 2/2 1800 м -4.0 -17.0 36 -7 -7 1030.3
Ю 2 16 км 2/2 1800 м -4.0 -16.0 39 -7 -7 1030.3
Ю 3 16 км ясно -4.0 -17.0 36 -8 -8 1030.0
Ю 3 16 км ясно -4.0 -17.0 36 -8 -8 1029.6
Ю 3 16 км 2/2 1650 м -4.0 -16.0 39 -9 -9 1029.6
Ю 3 16 км 8/8 1650 м -4.0 -16.0 39 -9 -9 1029.6
Ю 3 16 км 10/10 1650 м -4.0 -15.0 42 -9 -9 1029.3
Ю 3 16 км 8/8 1650 м -4.0 -13.0 50 -9 -9 1029.3
Ю 3 16 км 8/8 1800 м -4.0 -11.0 58 -9 -9 1029.3
нст 3
{6}
16 км 2/2 1800 м -4.0 -10.0 63 -9 -9 1028.6
Ю 3
{6}
16 км ясно -4.0 -9.0 68 -9 -9 1028.6
Ю 4 16 км ясно -3.0 -9.0 63 -9 -9 1028.3
Ю 3 16 км ясно -3.0 -8.0 68 -8 -8 1027.9
нст 3 16 км ясно -3.0 -8.0 68 -8 -8 1027.6
Ю 3 16 км ясно -3.0 -7.0 74 -8 -8 1027.3
Ю 3
{6}
16 км ясно -3.0 -7.0 74 -8 -8 1026.9
Ю 3 16 км ясно -3.0 -7.0 74 -8 -8 1026.6
нст 3 16 км ясно -3.0 -7.0 74 -8 -8 1026.3
Ю 3 16 км ясно -2.0 -8.0 63 -7 -7 1026.3
Ю 3
{6}
16 км ясно -2.0 -8.0 63 -7 -7 1025.9
Ю 4 16 км ясно -2.0 -8.0 63 -7 -7 1025.6
нст 3 16 км ясно -2.0 -8.0 63 -7 -7 1025.6
Ю 3 16 км ясно -1.0 -9.0 55 -5 -5 1025.2
Ю 3 16 км ясно -1.0 -9.0 55 -5 -5 1024.9
ЮЗ 4 16 км ясно -1.0 -9.0 55 -6 -6 1024.9
нст 3 16 км ясно 0.0 -9.0 51 -4 -4 1024.6
ЮЗ 3 16 км ясно 0.0 -9.0 51 -4 -4 1024.6
ЮЗ 3 16 км ясно 0.0 -9.0 51 -4 -4 1024.2
ЮЗ 3 16 км ясно 0.0 -8.0 55 -4 -4 1024.6
ЮЗ 3 16 км ясно 0.0 -8.0 55 -4 -4 1024.2
ЮЗ 3 16 км ясно 0.0 -8.0 55 -4 -4 1024.2
ЮЗ 3
{5}
16 км ясно 0.0 -8.0 55 -4 -4 1024.6
ЮЗ 3 16 км ясно 0.0 -8.0 55 -4 -4 1024.2
ЮЗ 3 16 км ясно 0.0 -8.0 55 -4 -4 1024.2
ЮЗ 3 16 км ясно 0.0 -8.0 55 -4 -4 1023.9
ЮЗ 3 16 км ясно 0.0 -8.0 55 -4 -4 1023.9
ЮЗ 3
{6}
16 км ясно 0.0 -7.0 59 -4 -4 1023.9
ЮЗ 4
{7}
16 км ясно +1.0 -7.0 55 -4 -4 1023.2
ЮЗ 4 16 км ясно +1.0 -7.0 55 -4 -3 1023.6
Местоположение метеостанции Delaware Airpark: широта 39.2183 долгота -75.5967 высота над уровнем моря 17 м.
В архиве по умолчанию представлена погода в Довер / Чезволд за последние 1-2 суток. Обновление информации о фактической погоде в базе происходит ежечасно! Архивные данные за месяц целиком и за предыдущие месяцы Вы можете получить, выбрав интересующий диапазон дат из раскрывающегося списка и нажав кнопку "Ввод!".
Внимание! Архив погоды МЕТАР в базе сайта по станциям, не включенным в климатический монитор, хранится не более 60 дней. Нет смысла пытаться выбрать более раннюю дату.
*Определитесь, кто Вы:
Внимание! Время в таблицах - местное (без учета летнего времени). Для получения всемирного времени необходимо вычесть поправку, которая равна -5 ч.
Смотрите также архив погоды в соседних городах и на ближайших метеорологических станциях:
Партнеры нашего сайта:      
Пояснения к столбцам:
  • Ветер - указаны скорость ветра в м/с - средняя за 10 мин, порывы в срок и между сроками (в фигурных скобках) и направление, откуда дует ветер: С - северный,
  • СВ - северо-восточный, В - восточный, ЮВ - юго-восточный, Ю - южный, ЮЗ - юго-западный, З - западный, СЗ - северо-западный.
  • Видимость - горизонтальная дальность видимости в метрах или километрах. При видимости от 1 до 10 км при отсутствии осадков обычно наблюдается дымка, при ухудшении видимости до 1 км и менее - туман. В сухую погоду видимость может ухудшаться дымом, пылью или мглою.
  • Явления - указаны атмосферные явления, наблюдавшиеся в срок или в последний час перед сроком; фигурными скобками обозначены явления, наблюдавшиеся между сроками (за 1-3 часа до срока); квадратными скобками обозначены град или гололедные отложения с указанием их диаметра в мм.
  • Облачность - указаны через наклонную черту общая и нижняя облачность в баллах и высота нижней границы облаков в метрах; квадратными скобками обозначены формы облаков: Ci - перистые, Cs - перисто-слоистые, Cc - перисто-кучевые, Ac - высококучевые, As - высокослоистые, Sc - слоисто-кучевые, Ns - слоисто-дождевые, Cu - кучевые, Cb - кучево-дождевые. Подробнее классификацию облаков см. в Атласе облаков (PDF).
  • T - Температура воздуха - температура, измеренная на высоте 2 м над землей.
  • Td - Температура точки росы - температура, при понижении до которой содержащийся в воздухе водяной пар достигнет насыщения.
  • f - Относительная влажность воздуха - влажноcть воздуха, измеренная на высоте 2 м над землей.
  • Te - Эффективная температура - температура, которую ощущает одетый по сезону человек в тени. Характеристика душности погоды. При расчете учитывается влияние влажности воздуха и скорости ветра на теплоощущения человека.
  • Tes - Эффективная температура на солнце - температура, которую ощущает человек, с поправкой на солнечный нагрев. Характеристика знойности погоды. Зависит от высоты солнца над горизонтом, облачности и скорости ветра. Ночью, в пасмурную погоду, а также при ветре 12 м/с и более поправка равна нулю.
  • P - Атмосферное давление - приведенное к уровню моря атмосферное давление.
  • Po - Атмосферное давление - измеренное на уровне метеостанции атмосферное давление.
  • Tmin - Минимальная температура - минимум температуры воздуха на высоте 2 м над землей.
  • Tmax - Максимальная температура - максимум температуры воздуха на высоте 2 м над землей.
  • R - Количество осадков - Количество выпавших осадков за период времени, мм. При наведении курсора мыши на число - период времени, за который выпало указанное количество осадков.
  • R24 - Количество осадков - Количество выпавших осадков за 24 часа, мм.
  • S - Снежный покров - Высота снежного покрова, см. При наведении курсора мыши на число - состояние снежного покрова и степень покрытия местности в баллах.